Regional Weather Roundup
Issued by NWS

Home | Current Version | Previous Version | Text Only | Print | Product List | Glossary On
Versions: 1 2 3 4 5 6 7 8 9 10 11 12 13 14 15 16 17 18 19 20 21 22 23 24 25 26 27 28 29 30 31 32 33 34 35 36 37 38 39 40 41 42 43 44 45 46 47 48 49 50
000
ASUS43 KDTX 221910
RWRMI
MICHIGAN HOURLY REGIONAL WEATHER ROUNDUP
NATIONAL WEATHER SERVICE DETROIT/PONTIAC MI
300 PM EDT WED OCT 22 2014

NOTE: "FAIR" INDICATES FEW OR NO CLOUDS BELOW 12,000 FEET WITH NO
SIGNIFICANT WEATHER AND/OR OBSTRUCTION TO VISIBILITY.

MIZ047>049-052>055-059>063-066>070-074>076-081>083-222000-
SOUTHEAST LOWER MICHIGAN

CITY           SKY/WX    TMP DP  RH WIND       PRES   REMARKS
ADRIAN         PTSUNNY   50  39  66 N3        30.32F
ALMA           CLOUDY    47  38  71 CALM      30.36S
ANN ARBOR      MOSUNNY   56  40  55 N8        30.29F
BAD AXE        CLOUDY    49  41  74 N7        30.32F
CARO           CLOUDY    50  40  68 N7        30.32F
DETROIT CITY   PTSUNNY   58  40  51 N13       30.29F
DETROIT        PTSUNNY   55  41  59 N9        30.29F
FLINT          CLOUDY    52  40  63 NE6       30.34F
GROSSE ILE     MOSUNNY   55  41  58 N9        30.27F
HILLSDALE      CLOUDY    47  41  79 N6        30.31F
HOWELL         PTSUNNY   49  39  69 N3        30.32S

CITY           SKY/WX    TMP DP  RH WIND       PRES   REMARKS
JACKSON        CLOUDY    48  39  71 N3        30.32F
LAMBERTVILLE   CLOUDY    54  41  62 NW5       30.30F
LANSING        CLOUDY    47  38  71 NE6       30.35F
LAPEER         CLOUDY    49  38  66 N7        30.31F
MASON          CLOUDY    47  39  74 NE3       30.33F
MONROE         MOSUNNY   55  41  58 CALM      30.27F
MT. CLEMENS    MOSUNNY   55  40  58 N12       30.26F
PONTIAC        CLOUDY    50  38  63 N8        30.29F
PORT HOPE        N/A     48  39  71 N10       30.32F
PORT HURON     PTSUNNY   52  43  71 NE14      30.29F
TRI CITIES     CLOUDY    49  40  71 N9        30.36F
TROY           MOSUNNY   53  39  58 N6        30.31F
SAGINAW HB     CLOUDY    48  41  76 NW5       30.34S
$$
MIZ043>046-050>051-056>058-064>065-071>073-077>080-222000-
SOUTHWEST LOWER MICHIGAN

CITY           SKY/WX    TMP DP  RH WIND       PRES   REMARKS
BATTLE CREEK   CLOUDY    47  38  71 NE3       30.34F
BENTON HARBOR  SUNNY     51  36  56 N5        30.33F
BIG RAPIDS     SUNNY     48  37  65 CALM      30.34F
COLDWATER      CLOUDY    46  40  77 N3        30.33S
FREMONT        FAIR      49  29  45 N3        30.34F
HOLLAND        SUNNY     53  36  52 E9        30.34F
GRAND RAPIDS   MOSUNNY   50  39  66 NE8       30.34F
IONIA          CLOUDY    47  38  71 NE6       30.34S
KALAMAZOO      CLOUDY    48  38  68 VRB3      30.34F
LUDINGTON      SUNNY     49  37  63 W8        30.35F
MARSHALL       CLOUDY    46  38  74 NW5       30.32F
MOUNT PLEASANT CLOUDY    47  37  67 SE3       30.34F
MUSKEGON       SUNNY     53  32  44 SE5       30.37S
SOUTH HAVEN    SUNNY     54  34  48 N6        30.32F
$$
MIZ016>042-222000-
NORTHERN LOWER MICHIGAN

CITY           SKY/WX    TMP DP  RH WIND       PRES   REMARKS
ALPENA         SUNNY     51  31  46 NW3       30.35F
BEAVER ISLAND  MOSUNNY   47  37  67 W6        30.36F
BELLAIRE       SUNNY     48  32  54 W3        30.35F
CADILLAC       SUNNY     44  34  69 CALM      30.32F
CHARLEVOIX     SUNNY     49  36  60 W10       30.39S
FRANKFORT      SUNNY     49  35  60 W8        30.35F
GAYLORD        SUNNY     48  31  51 CALM      30.33F
GRAYLING       SUNNY     43  33  69 NE3       30.35F
HARBOR SPRINGS SUNNY     49  32  51 CALM      30.35F
HOUGHTON LAKE  MOSUNNY   44  35  70 W7        30.35F
MANISTEE       SUNNY     46  34  61 NW6       30.35F
OSCODA         SUNNY     49  36  62 NE8       30.34F
PELLSTON       SUNNY     50  34  54 MISG      30.36F
ROGERS CITY    SUNNY     45  37  76 NE5       30.38S
TRAVERSE CITY  SUNNY     48  32  53 SE6       30.35F
$$
MIZ007>008-015-222000-
EASTERN UPPER MICHIGAN

CITY           SKY/WX    TMP DP  RH WIND       PRES   REMARKS
KINROSS        SUNNY     48  32  53 CALM      30.35F
MACKINAC ISLAN SUNNY     45  32  59 E5        30.36F
NEWBERRY       SUNNY     49  36  59 S3        30.34F
S. S. MARIE    SUNNY     49  28  44 VRB5      30.35F
MUNISING         N/A     53  33  46 S10       30.32F
$$
MIZ004>006-011>014-085-222000-
CENTRAL UPPER MICHIGAN

CITY           SKY/WX    TMP DP  RH WIND       PRES   REMARKS
MANISTIQUE     MOSUNNY   47  36  66 S6        30.36F
ESCANABA       MOSUNNY   46  36  66 S9        30.35F
MENOMINEE      SUNNY     48  36  61 SE9       30.33F
SAWYER-GWINN   SUNNY     48  36  61 S14       30.30F
$$
MIZ001>003-009>011-084-222000-
WESTERN UPPER MICHIGAN

CITY           SKY/WX    TMP DP  RH WIND       PRES   REMARKS
IRON MOUNTAIN  SUNNY     50  34  54 SE12      30.29F
HOUGHTON       SUNNY     50  33  52 SE13      30.23F
COPPER HARBOR    N/A     49  36  61 VRB7      30.25F
IRONWOOD       MOSUNNY   54  32  43 S12G18    30.17F
$$

ABBREVIATIONS USED IN REMARKS
   TC - TEMPERATURE IN CELSIUS
  WCI - WIND CHILL INDEX
   HX - HEAT INDEX
  VSB - VISIBILITY




USA.gov is the U.S. government's official web portal to all federal, state and local government web resources and services.